Weather History for Milton, FL

Change the Weather History Date:

Tuesday, November 29, 2011

  Actual Average (KNSE) Record (KNSE)
Temperature  
Mean Temperature 46 °F -  
Max Temperature 57 °F 65 °F 75 °F (2008)
Min Temperature 34 °F 45 °F 30 °F (2013)
Degree Days  
Heating Degree Days 20    
Moisture  
Dew Point 35 °F    
Average Humidity 69    
Maximum Humidity 93    
Minimum Humidity 40    
Precipitation  
Precipitation 0.00 in - - ()
Sea Level Pressure  
Sea Level Pressure 29.99 in    
Wind  
Wind Speed 6 mph (NW)    
Max Wind Speed 20 mph    
Max Gust Speed 28 mph    
Visibility 10 miles    
Events      
Averages and records for this station are not official NWS values.
T = Trace of Precipitation, MM = Missing Value Source: NWS Daily Summary

Daily Weather History Graph

Daily Weather History Graph

Search for Another Location

Airport:

Trip Planner

Search our weather history database for the weather conditions in past years. The results will help you decide how hot, cold, wet, or windy it might be!

Date:

Astronomy

Nov. 29, 2011 Rise Set
Actual Time 6:26 AM CST 4:46 PM CST
Civil Twilight 5:59 AM CST 5:12 PM CST
Nautical Twilight 5:30 AM CST 5:42 PM CST
Astronomical Twilight 5:01 AM CST 6:11 PM CST
Moon 10:18 AM CST (11/29) 9:30 PM CST (11/29)
Length of Visible Light 11h 12m
Length of Day
10h 20m
Waxing Crescent, 24% of the Moon is Illuminated
Nov 29
Waxing Crescent
Dec 2
First Quarter
Dec 10
Full
Dec 17
Last Quarter
Dec 24
New

Hourly Weather History & Observations

Time (CST) Temp. Windchill Dew Point Humidity Pressure Visibility Wind Dir Wind Speed Gust Speed Precip Events Conditions
12:56 AM 39.0 °F - 37.0 °F 93% 29.94 in 10.0 mi Calm Calm - N/A   Mostly Cloudy
1:56 AM 37.9 °F - 36.0 °F 93% 29.94 in 10.0 mi Calm Calm - N/A   Mostly Cloudy
2:56 AM 37.0 °F 34.5 °F 34.0 °F 89% 29.96 in 10.0 mi Variable 3.5 mph - N/A   Clear
3:56 AM 36.0 °F - 34.0 °F 93% 29.95 in 10.0 mi Calm Calm - N/A   Clear
4:56 AM 35.1 °F - 33.1 °F 92% 29.95 in 10.0 mi Calm Calm - N/A   Clear
5:56 AM 34.0 °F - 32.0 °F 92% 29.96 in 10.0 mi Calm Calm - N/A   Clear
6:56 AM 37.0 °F 34.5 °F 34.0 °F 89% 29.96 in 10.0 mi SSW 3.5 mph - N/A   Clear
7:56 AM 43.0 °F 40.3 °F 34.0 °F 71% 29.96 in 10.0 mi Variable 4.6 mph - N/A   Clear
8:56 AM 48.0 °F - 34.0 °F 58% 29.95 in 10.0 mi WSW 9.2 mph - N/A   Clear
9:56 AM 51.1 °F - 32.0 °F 48% 29.96 in 10.0 mi West 11.5 mph 20.7 mph N/A   Clear
10:56 AM 54.0 °F - 30.0 °F 40% 29.94 in 10.0 mi West 8.1 mph 20.7 mph N/A   Clear
11:56 AM 55.0 °F - 32.0 °F 42% 29.93 in 10.0 mi Variable 5.8 mph 16.1 mph N/A   Partly Cloudy
12:56 PM 57.0 °F - 36.0 °F 45% 29.92 in 10.0 mi WNW 10.4 mph 20.7 mph N/A   Scattered Clouds
1:56 PM 55.0 °F - 37.0 °F 51% 29.92 in 10.0 mi WNW 9.2 mph 20.7 mph N/A   Scattered Clouds
2:56 PM 53.1 °F - 37.0 °F 55% 29.95 in 10.0 mi NW 17.3 mph 24.2 mph N/A   Scattered Clouds
3:56 PM 50.0 °F - 36.0 °F 59% 29.98 in 10.0 mi NW 13.8 mph 20.7 mph N/A   Mostly Cloudy
4:39 PM 46.4 °F 41.1 °F 35.6 °F 66% 30.02 in 10.0 mi NNW 11.5 mph - N/A   Overcast
4:56 PM 46.9 °F - 36.0 °F 66% 30.00 in 10.0 mi NNW 8.1 mph 18.4 mph N/A   Overcast
5:56 PM 46.0 °F 40.2 °F 35.1 °F 66% 30.02 in 10.0 mi NNW 12.7 mph - N/A   Overcast
6:56 PM 45.0 °F 37.4 °F 34.0 °F 65% 30.04 in 10.0 mi NNW 18.4 mph 27.6 mph N/A   Overcast
7:49 PM 44.6 °F 38.4 °F 33.8 °F 66% 30.09 in 10.0 mi NNW 12.7 mph - N/A   Scattered Clouds
7:56 PM 44.1 °F 37.4 °F 34.0 °F 68% 30.06 in 10.0 mi North 13.8 mph - N/A   Partly Cloudy
8:43 PM 44.6 °F 39.2 °F 35.6 °F 71% 30.10 in 10.0 mi NNW 10.4 mph - N/A   Mostly Cloudy
8:56 PM 44.1 °F 38.6 °F 35.1 °F 71% 30.08 in 10.0 mi NNW 10.4 mph - N/A   Overcast
9:56 PM 45.0 °F 37.1 °F 35.1 °F 68% 30.08 in 10.0 mi NNW 19.6 mph 27.6 mph N/A   Overcast
10:56 PM 45.0 °F 37.4 °F 34.0 °F 65% 30.09 in 10.0 mi North 18.4 mph 25.3 mph N/A   Overcast
11:56 PM 45.0 °F 39.3 °F 35.1 °F 68% 30.08 in 10.0 mi North 11.5 mph 20.7 mph N/A   Overcast